Total_Precipitation_Accumulation
0.04 0.03 0.03 0.04 0.03 0.01 0.00 0.00 0.00 0.00 0.00 0.00 0.00 0.00 0.00 0.00 0.00 0.00 0.00 0.00 0.00 0.02 0.07 0.17 0.27 0.32 0.37 0.40 0.38 0.36 0.36 0.36 0.38 0.40 0.40 0.38 0.40 0.41 0.45 0.46 0.45 0.45 0.42 0.45 0.52 0.57 0.56 0.54 0.47
0.05 0.05 0.06 0.06 0.03 0.01 0.00 0.00 0.00 0.00 0.00 0.00 0.00 0.00 0.00 0.00 0.00 0.00 0.00 0.00 0.00 0.02 0.06 0.11 0.22 0.29 0.34 0.37 0.37 0.39 0.40 0.40 0.45 0.44 0.41 0.41 0.41 0.41 0.44 0.46 0.45 0.45 0.43 0.43 0.45 0.44 0.45 0.41 0.34
0.07 0.09 0.09 0.07 0.03 0.00 0.00 0.00 0.00 0.00 0.00 0.00 0.00 0.00 0.00 0.00 0.00 0.00 0.00 0.00 0.01 0.03 0.06 0.12 0.23 0.29 0.32 0.38 0.39 0.40 0.40 0.44 0.50 0.51 0.48 0.47 0.46 0.46 0.46 0.44 0.43 0.41 0.40 0.40 0.42 0.38 0.37 0.36 0.33
0.08 0.12 0.11 0.06 0.01 0.00 0.00 0.00 0.00 0.00 0.00 0.00 0.00 0.00 0.00 0.00 0.00 0.00 0.00 0.01 0.01 0.02 0.04 0.12 0.23 0.30 0.32 0.36 0.37 0.39 0.40 0.44 0.50 0.49 0.49 0.49 0.51 0.48 0.46 0.44 0.43 0.39 0.38 0.40 0.40 0.37 0.37 0.35 0.32
0.09 0.12 0.11 0.05 0.01 0.00 0.00 0.00 0.00 0.00 0.00 0.00 0.00 0.00 0.00 0.00 0.00 0.00 0.00 0.01 0.02 0.03 0.06 0.13 0.25 0.34 0.35 0.37 0.39 0.41 0.44 0.46 0.48 0.48 0.49 0.51 0.53 0.51 0.47 0.41 0.40 0.38 0.36 0.38 0.39 0.36 0.37 0.37 0.35
0.14 0.13 0.08 0.03 0.01 0.00 0.00 0.00 0.00 0.00 0.00 0.00 0.00 0.00 0.00 0.00 0.00 0.00 0.00 0.01 0.02 0.04 0.08 0.16 0.31 0.37 0.39 0.41 0.40 0.44 0.47 0.51 0.51 0.48 0.50 0.53 0.57 0.54 0.49 0.44 0.42 0.40 0.38 0.37 0.34 0.30 0.29 0.33 0.35
0.18 0.14 0.06 0.02 0.01 0.01 0.00 0.00 0.00 0.00 0.00 0.00 0.00 0.00 0.01 0.01 0.01 0.01 0.01 0.02 0.03 0.06 0.10 0.19 0.33 0.40 0.46 0.49 0.47 0.48 0.52 0.55 0.55 0.53 0.52 0.53 0.56 0.54 0.49 0.43 0.42 0.40 0.39 0.37 0.33 0.28 0.26 0.27 0.27
0.23 0.23 0.10 0.03 0.01 0.01 0.01 0.01 0.01 0.01 0.01 0.00 0.01 0.01 0.01 0.02 0.02 0.03 0.03 0.04 0.06 0.10 0.14 0.22 0.31 0.40 0.45 0.49 0.50 0.51 0.50 0.53 0.57 0.56 0.56 0.52 0.52 0.54 0.50 0.43 0.41 0.41 0.41 0.40 0.37 0.33 0.30 0.28 0.25
0.35 0.35 0.16 0.05 0.03 0.02 0.01 0.02 0.02 0.02 0.02 0.01 0.01 0.02 0.02 0.02 0.03 0.06 0.08 0.10 0.13 0.18 0.21 0.27 0.34 0.41 0.49 0.52 0.50 0.55 0.56 0.57 0.60 0.59 0.58 0.59 0.54 0.52 0.49 0.43 0.39 0.39 0.41 0.40 0.38 0.36 0.35 0.33 0.26
0.43 0.34 0.14 0.05 0.04 0.04 0.03 0.03 0.03 0.03 0.03 0.03 0.02 0.02 0.03 0.05 0.06 0.08 0.10 0.12 0.16 0.20 0.24 0.30 0.35 0.43 0.53 0.58 0.59 0.64 0.63 0.59 0.59 0.53 0.54 0.56 0.57 0.55 0.48 0.44 0.41 0.41 0.44 0.46 0.44 0.40 0.38 0.36 0.27
0.37 0.27 0.11 0.06 0.07 0.08 0.06 0.04 0.03 0.04 0.04 0.05 0.05 0.04 0.04 0.06 0.08 0.09 0.10 0.12 0.13 0.18 0.26 0.32 0.39 0.46 0.54 0.60 0.62 0.61 0.65 0.61 0.59 0.54 0.52 0.53 0.58 0.55 0.52 0.50 0.50 0.48 0.45 0.47 0.50 0.52 0.48 0.44 0.36
0.31 0.21 0.12 0.09 0.10 0.13 0.11 0.09 0.06 0.04 0.03 0.04 0.06 0.05 0.05 0.07 0.08 0.09 0.11 0.12 0.15 0.20 0.28 0.35 0.42 0.51 0.58 0.61 0.64 0.62 0.59 0.58 0.55 0.55 0.54 0.55 0.54 0.50 0.47 0.43 0.41 0.42 0.40 0.40 0.44 0.47 0.49 0.51 0.48
0.30 0.21 0.13 0.09 0.10 0.12 0.12 0.12 0.11 0.05 0.02 0.03 0.05 0.06 0.07 0.07 0.08 0.09 0.11 0.14 0.16 0.19 0.29 0.38 0.46 0.52 0.61 0.68 0.66 0.63 0.59 0.54 0.52 0.55 0.55 0.53 0.52 0.48 0.45 0.42 0.42 0.40 0.36 0.34 0.36 0.36 0.34 0.36 0.40
0.27 0.23 0.19 0.14 0.11 0.11 0.13 0.12 0.12 0.06 0.04 0.04 0.05 0.06 0.07 0.08 0.10 0.12 0.13 0.16 0.19 0.21 0.31 0.40 0.50 0.55 0.60 0.68 0.67 0.64 0.60 0.57 0.57 0.54 0.52 0.53 0.54 0.50 0.45 0.42 0.39 0.39 0.38 0.36 0.34 0.33 0.31 0.28 0.26
0.29 0.32 0.27 0.18 0.12 0.11 0.16 0.16 0.12 0.06 0.07 0.07 0.06 0.05 0.06 0.08 0.11 0.14 0.16 0.17 0.20 0.25 0.34 0.44 0.49 0.57 0.60 0.66 0.70 0.69 0.64 0.60 0.61 0.58 0.54 0.56 0.57 0.57 0.53 0.48 0.42 0.38 0.38 0.38 0.39 0.38 0.36 0.32 0.27
0.41 0.45 0.37 0.21 0.14 0.13 0.25 0.21 0.08 0.07 0.11 0.10 0.08 0.07 0.07 0.08 0.11 0.15 0.18 0.18 0.23 0.29 0.38 0.49 0.53 0.58 0.62 0.65 0.73 0.72 0.72 0.64 0.64 0.66 0.63 0.58 0.58 0.60 0.60 0.59 0.56 0.50 0.46 0.43 0.42 0.41 0.40 0.37 0.32
0.60 0.51 0.34 0.23 0.18 0.20 0.28 0.23 0.09 0.08 0.12 0.13 0.10 0.08 0.09 0.10 0.13 0.14 0.18 0.18 0.20 0.26 0.36 0.51 0.58 0.62 0.65 0.67 0.74 0.81 0.79 0.75 0.70 0.71 0.71 0.65 0.63 0.62 0.61 0.61 0.62 0.65 0.62 0.53 0.47 0.43 0.39 0.37 0.33
0.60 0.43 0.29 0.23 0.18 0.21 0.26 0.21 0.10 0.08 0.10 0.11 0.11 0.10 0.09 0.10 0.12 0.14 0.19 0.24 0.23 0.26 0.36 0.50 0.64 0.71 0.74 0.79 0.80 0.90 0.93 0.84 0.78 0.74 0.76 0.73 0.68 0.67 0.67 0.64 0.63 0.65 0.68 0.65 0.55 0.48 0.44 0.40 0.38
0.42 0.40 0.32 0.21 0.19 0.19 0.21 0.19 0.11 0.07 0.08 0.08 0.07 0.08 0.08 0.07 0.08 0.13 0.19 0.27 0.31 0.32 0.38 0.50 0.61 0.75 0.80 0.86 0.85 0.83 0.89 0.89 0.83 0.76 0.79 0.88 0.82 0.72 0.71 0.73 0.73 0.70 0.68 0.63 0.58 0.54 0.52 0.49 0.45
0.46 0.46 0.35 0.23 0.22 0.26 0.24 0.19 0.11 0.07 0.07 0.08 0.08 0.07 0.07 0.08 0.09 0.14 0.19 0.25 0.29 0.33 0.37 0.48 0.62 0.73 0.77 0.78 0.84 0.82 0.85 0.86 0.87 0.83 0.83 0.90 0.95 0.87 0.77 0.75 0.75 0.74 0.68 0.64 0.59 0.58 0.61 0.59 0.52
0.51 0.43 0.32 0.27 0.27 0.31 0.34 0.28 0.14 0.08 0.08 0.10 0.11 0.11 0.10 0.10 0.11 0.15 0.19 0.22 0.25 0.30 0.34 0.40 0.56 0.74 0.80 0.78 0.88 0.95 1.02 1.06 1.04 0.97 0.89 0.90 0.93 0.91 0.84 0.76 0.70 0.73 0.71 0.68 0.62 0.58 0.59 0.62 0.57
0.49 0.28 0.25 0.29 0.40 0.43 0.38 0.44 0.21 0.12 0.10 0.11 0.13 0.14 0.14 0.12 0.13 0.18 0.21 0.25 0.27 0.32 0.36 0.38 0.47 0.64 0.83 0.86 0.88 0.94 0.99 1.01 1.05 0.98 0.90 0.88 0.92 0.95 0.89 0.87 0.79 0.72 0.70 0.66 0.63 0.61 0.61 0.65 0.66
0.37 0.26 0.28 0.35 0.45 0.48 0.37 0.47 0.28 0.16 0.14 0.11 0.10 0.11 0.12 0.12 0.15 0.20 0.24 0.29 0.32 0.39 0.46 0.45 0.50 0.58 0.78 0.83 0.83 0.88 0.92 0.94 1.02 1.04 0.97 0.94 0.96 1.00 1.00 0.97 0.92 0.86 0.77 0.68 0.63 0.63 0.66 0.68 0.68
0.33 0.39 0.45 0.50 0.68 0.72 0.30 0.33 0.32 0.26 0.23 0.16 0.13 0.14 0.13 0.14 0.17 0.21 0.27 0.34 0.39 0.44 0.55 0.55 0.58 0.58 0.69 0.86 0.84 0.81 0.85 0.88 0.94 0.99 1.05 1.04 1.02 1.02 1.02 1.02 0.97 0.91 0.90 0.82 0.72 0.67 0.68 0.67 0.66
0.54 0.79 1.09 1.09 1.02 0.58 0.14 0.20 0.30 0.25 0.23 0.18 0.15 0.18 0.17 0.17 0.19 0.23 0.30 0.39 0.40 0.43 0.57 0.59 0.60 0.62 0.63 0.78 0.85 0.79 0.79 0.81 0.82 0.90 0.93 0.99 1.05 1.04 1.03 1.04 1.01 0.95 0.90 0.88 0.83 0.78 0.76 0.74 0.75
0.52 0.67 0.86 0.78 0.47 0.19 0.10 0.16 0.21 0.19 0.15 0.13 0.14 0.16 0.18 0.17 0.18 0.22 0.27 0.34 0.39 0.39 0.50 0.60 0.63 0.65 0.64 0.72 0.85 0.87 0.85 0.86 0.81 0.85 0.91 0.92 0.94 0.95 0.91 0.94 0.94 0.91 0.85 0.84 0.85 0.85 0.82 0.83 0.85
0.40 0.45 0.41 0.55 0.36 0.20 0.14 0.11 0.14 0.13 0.10 0.11 0.12 0.14 0.18 0.20 0.21 0.23 0.26 0.29 0.32 0.38 0.45 0.52 0.64 0.70 0.70 0.70 0.83 0.99 1.04 0.96 0.86 0.82 0.87 0.88 0.85 0.86 0.88 0.87 0.88 0.83 0.79 0.77 0.77 0.79 0.78 0.82 0.85
0.37 0.42 0.55 0.76 0.59 0.30 0.15 0.14 0.23 0.19 0.16 0.14 0.13 0.14 0.14 0.19 0.25 0.28 0.28 0.31 0.32 0.34 0.41 0.46 0.58 0.69 0.74 0.71 0.78 0.93 1.15 1.17 1.02 0.96 0.86 0.83 0.82 0.82 0.83 0.86 0.85 0.85 0.79 0.77 0.77 0.74 0.71 0.77 0.80
0.43 0.53 0.70 0.75 0.51 0.37 0.22 0.18 0.24 0.22 0.19 0.15 0.12 0.11 0.12 0.16 0.20 0.24 0.27 0.34 0.37 0.36 0.40 0.45 0.51 0.61 0.69 0.67 0.72 0.82 0.99 1.21 1.23 1.12 1.00 0.86 0.82 0.79 0.78 0.80 0.82 0.82 0.83 0.82 0.86 0.81 0.73 0.75 0.78
0.41 0.47 0.57 0.73 0.53 0.29 0.24 0.16 0.11 0.13 0.15 0.13 0.11 0.09 0.11 0.15 0.17 0.20 0.24 0.32 0.37 0.38 0.40 0.43 0.48 0.56 0.63 0.64 0.68 0.77 0.85 1.02 1.24 1.18 1.05 0.93 0.86 0.82 0.82 0.81 0.83 0.82 0.83 0.85 0.89 0.86 0.77 0.76 0.77